Wind_Speed
41 41 42 42 43 44 45 46 47 48 49 51 51 50 47 42 37 35 35 37 39 40 39 41 45 48 49 49 46 45 47 48 48 48 45 44 44 45 46 48 50 53 54 55 57 58 57 58 62 65 64 64 64 64 64 65 66 68 70 74 77 79 81 82 82 82 77 66 56 47 39 37 39 40 43 47 49 50 50 48 46 48 56 65 71
42 42 43 43 44 45 47 48 50 52 53 52 49 44 40 37 35 37 38 38 39 39 40 43 49 52 53 50 47 48 51 52 52 50 47 45 45 46 47 49 51 54 56 57 59 59 58 60 64 65 65 66 66 66 67 68 68 69 72 76 80 82 82 82 81 78 73 63 53 47 40 37 39 41 43 46 50 51 51 50 48 47 50 58 67
43 43 44 44 45 47 48 50 52 53 52 47 41 36 35 36 38 40 41 42 42 43 45 48 53 55 53 50 49 51 52 53 53 52 49 47 47 48 49 50 51 54 56 59 60 60 60 64 66 67 68 69 69 69 70 70 70 72 75 79 83 85 85 83 78 71 67 61 52 47 42 39 39 42 43 46 50 52 52 52 51 49 48 53 61
44 44 45 46 46 46 46 49 51 48 43 41 39 37 38 41 45 46 48 49 49 48 49 51 54 56 54 52 51 51 51 53 53 52 49 48 49 50 50 50 51 54 57 59 60 61 64 67 69 70 71 72 72 72 72 73 74 76 79 82 86 87 86 82 73 64 62 60 55 50 45 41 41 42 43 45 50 52 53 53 53 52 49 50 56
46 46 46 47 47 45 44 47 48 46 45 47 49 49 49 50 49 48 49 50 50 50 49 50 52 53 53 52 49 48 51 53 52 51 50 50 51 51 50 49 51 55 57 59 62 65 67 69 71 73 74 74 75 75 75 76 78 80 82 85 88 88 86 78 68 60 59 59 57 54 50 46 44 43 43 45 49 52 53 53 54 54 51 50 53
47 47 47 48 49 47 46 47 49 51 54 57 57 56 55 53 50 48 49 50 50 50 49 49 50 50 48 48 45 46 51 53 52 53 54 54 55 55 54 53 55 59 61 63 66 68 69 71 74 75 76 76 76 76 78 80 81 83 85 87 88 87 82 74 64 59 58 58 57 56 55 52 48 45 44 45 48 52 53 53 55 55 52 51 52
49 49 49 50 52 51 50 50 53 56 57 57 56 56 54 52 51 52 52 52 52 51 49 49 49 47 45 44 46 49 53 55 56 58 59 59 59 58 59 60 61 64 66 68 70 71 71 74 76 77 77 77 77 79 82 83 84 86 87 87 87 84 78 70 62 58 58 58 57 57 57 56 52 48 47 46 48 51 53 54 54 54 53 52 53
51 51 51 53 54 54 52 52 55 58 58 57 56 56 53 50 51 53 53 54 54 53 53 53 52 50 48 50 54 57 58 60 62 63 62 61 61 61 63 64 66 68 70 71 72 73 75 77 78 78 78 78 80 84 86 86 86 87 87 87 85 81 75 68 63 59 58 57 57 57 56 56 54 50 48 48 48 50 54 55 54 53 52 53 55
54 54 53 53 54 53 51 48 49 52 54 53 52 52 50 48 48 50 51 53 54 55 55 56 57 58 59 60 62 63 62 63 65 64 63 62 63 64 66 67 69 71 72 73 75 76 77 79 79 78 78 79 84 88 88 87 87 88 88 87 84 79 73 68 63 61 59 57 57 57 56 55 54 52 49 49 49 50 54 55 55 54 53 53 56
56 55 54 54 53 52 48 43 43 48 51 51 52 54 55 53 52 53 54 57 58 59 60 62 64 65 64 63 64 64 64 64 64 64 63 64 65 67 69 70 71 73 75 76 78 78 78 78 77 78 80 83 87 89 88 88 88 88 89 87 83 78 72 68 64 61 60 59 58 56 54 54 54 52 50 49 49 51 54 55 55 55 55 54 55
59 57 56 55 54 51 47 43 44 50 54 56 58 60 62 61 61 62 63 64 64 64 65 67 69 69 66 66 67 67 66 66 65 65 65 66 67 69 70 73 75 76 77 77 78 77 77 76 77 79 83 87 88 88 88 89 89 89 89 87 83 78 72 68 66 64 62 61 59 55 53 52 53 53 51 49 48 50 53 55 55 56 56 56 56
61 58 57 56 54 52 50 48 48 51 54 56 58 60 61 61 62 64 65 66 67 67 68 69 70 70 69 69 69 69 68 67 67 66 66 67 69 71 73 75 76 77 77 77 76 76 76 77 80 84 87 88 87 87 88 89 90 90 90 88 83 78 73 69 67 66 65 63 60 57 53 50 51 52 52 49 48 49 53 55 56 56 56 56 56
61 59 57 56 54 52 52 51 50 51 53 55 56 57 59 60 61 63 65 66 68 70 71 72 72 72 72 70 69 68 67 66 65 66 67 68 70 72 74 76 76 77 77 76 75 75 77 80 83 86 87 86 86 87 88 89 90 90 89 87 82 77 74 71 68 67 66 64 62 59 55 50 49 51 52 50 47 48 51 55 56 56 56 56 57
61 59 57 55 53 53 53 54 53 53 54 56 56 56 58 59 61 64 66 68 69 70 70 71 71 71 70 68 67 67 66 65 65 67 69 71 73 74 75 76 77 77 77 76 76 77 80 82 84 85 86 85 86 87 88 89 89 89 87 83 80 77 75 72 70 68 66 64 62 59 56 52 49 49 51 50 47 47 50 53 55 55 55 56 58
60 59 57 56 55 55 56 57 57 56 56 58 59 59 60 62 63 66 68 70 70 70 70 70 70 69 69 69 69 71 71 70 69 70 73 75 77 77 77 77 77 77 77 76 77 79 80 82 84 85 85 85 85 86 87 89 88 86 83 80 79 78 77 74 71 69 67 64 61 58 54 51 50 48 49 48 48 47 48 52 54 54 55 58 58
59 58 58 58 58 58 60 60 60 60 60 60 60 60 61 62 64 66 68 70 72 73 72 71 71 70 72 74 76 77 78 76 74 75 77 79 78 77 77 77 76 74 75 75 77 80 81 82 84 85 84 85 86 86 88 89 86 82 79 79 80 79 77 75 72 69 67 65 61 57 53 49 48 48 47 47 47 47 47 50 53 54 56 58 58
59 59 60 60 61 61 62 63 62 63 63 62 62 62 62 63 64 65 66 68 70 72 73 73 73 73 74 77 80 82 82 80 79 80 81 81 79 77 77 75 71 69 72 75 78 81 81 81 84 85 85 86 87 88 89 88 84 80 79 80 80 79 78 76 73 70 68 66 62 57 52 48 46 46 46 45 45 46 47 48 51 53 55 57 57
61 61 62 63 63 64 65 66 66 67 66 65 66 65 64 65 66 65 66 68 70 71 72 74 75 76 76 77 78 79 80 81 81 82 82 80 77 76 76 73 69 70 75 79 80 81 80 80 83 86 86 88 89 89 87 85 82 81 82 81 81 80 78 76 74 72 70 66 62 57 51 47 45 45 45 44 43 44 46 48 50 52 53 55 56
64 64 65 65 66 67 68 68 69 70 69 68 67 67 67 68 69 68 68 70 72 74 74 75 75 76 75 74 74 74 76 79 80 79 78 76 76 76 76 75 74 76 80 82 82 82 81 80 83 85 88 90 90 87 83 81 81 82 82 81 80 80 79 77 75 73 70 67 62 56 51 46 43 42 43 43 42 43 45 48 50 50 50 53 55
67 67 68 68 68 68 69 70 70 70 70 70 69 69 68 67 67 68 69 71 74 76 76 74 71 69 69 70 71 72 73 74 74 73 74 76 77 77 77 77 78 81 83 84 84 83 83 83 84 86 88 88 86 83 81 81 81 82 82 81 80 80 79 78 76 73 70 66 61 55 49 44 41 40 41 42 42 42 44 46 48 48 48 51 53
69 70 71 71 70 70 70 71 71 70 70 70 69 68 66 64 63 66 68 70 72 73 72 69 65 66 69 71 72 72 71 70 72 75 77 78 79 80 81 82 83 84 84 85 85 84 84 85 86 87 86 84 81 81 81 82 83 83 82 81 81 81 80 78 75 72 69 65 59 52 47 42 39 38 39 41 41 42 42 44 45 46 47 50 52
72 73 73 72 72 72 71 71 71 70 69 69 67 65 64 63 63 65 66 68 68 67 65 65 66 70 73 74 73 72 71 73 76 79 80 82 84 86 86 86 85 84 84 84 85 85 86 88 88 87 83 81 81 82 83 84 84 84 83 82 82 82 79 77 74 70 67 62 56 50 44 40 38 37 37 38 39 40 41 41 42 43 46 49 50
74 74 74 74 74 73 72 71 70 70 69 67 64 62 62 63 63 63 64 63 61 59 61 66 71 75 76 75 74 73 75 78 80 81 84 87 89 90 89 87 85 84 84 85 86 87 88 89 87 84 82 82 82 83 84 85 86 86 85 84 83 81 78 75 72 68 64 59 53 47 42 38 36 35 36 36 37 38 40 40 39 40 44 47 48
75 75 75 75 74 73 73 72 71 70 67 64 63 63 64 64 62 58 56 54 53 57 64 71 75 76 75 75 75 77 79 82 83 85 88 91 93 94 91 87 85 85 86 88 89 89 89 87 84 82 83 83 84 85 86 87 87 87 87 85 82 79 76 73 70 66 61 55 50 45 40 36 34 34 34 34 34 36 38 38 36 37 40 44 46
76 76 75 75 74 74 74 73 71 69 66 65 65 61 56 55 53 50 50 52 59 67 73 73 73 74 76 78 80 82 84 86 87 90 93 95 97 96 91 88 87 88 89 90 90 89 87 85 84 84 85 85 86 87 88 88 88 88 86 84 80 77 74 71 67 62 57 51 47 42 38 35 33 32 32 32 32 34 35 35 34 34 37 41 43
77 76 75 74 74 75 75 73 72 71 69 68 65 54 45 48 54 55 57 63 70 74 73 71 72 76 80 84 86 87 88 90 93 95 97 98 98 95 91 89 89 90 91 90 88 86 85 85 86 87 87 88 89 90 90 90 89 87 85 82 78 74 71 67 63 58 53 48 43 39 35 33 31 30 30 29 30 31 33 32 32 32 35 37 40
77 76 75 76 75 75 74 72 71 70 69 68 66 60 55 58 62 64 66 68 70 70 70 73 77 80 83 86 88 89 91 94 96 99 100 99 96 93 91 90 91 90 89 86 85 85 86 87 89 90 91 91 92 92 92 91 89 86 83 79 75 71 67 63 58 53 49 45 41 36 33 31 29 28 27 27 28 29 30 30 29 30 32 34 35
77 77 76 76 76 75 73 71 70 70 70 69 69 67 64 63 64 65 66 65 66 69 74 78 80 81 82 85 87 91 94 97 99 100 98 95 92 91 91 91 90 87 86 85 85 87 89 90 92 93 94 94 93 93 91 90 87 84 80 76 71 66 62 57 53 49 46 42 38 34 31 29 27 26 25 25 26 27 27 27 27 29 30 30 31
77 77 77 77 76 74 72 71 70 69 69 68 67 65 63 64 64 64 64 67 71 76 79 80 80 81 83 86 90 95 98 100 99 97 94 91 91 91 91 89 87 85 85 87 88 90 91 93 94 95 95 94 93 91 89 87 84 80 76 71 66 61 57 53 50 46 43 40 36 33 30 27 25 24 24 24 24 25 25 25 26 28 28 27 27
77 77 76 75 74 72 71 71 68 65 64 65 63 61 60 60 63 66 70 75 78 79 80 81 82 84 88 92 96 98 99 98 95 92 91 91 91 90 88 86 85 86 87 89 91 93 94 95 96 96 95 93 91 88 86 83 80 76 71 66 61 56 53 50 47 43 41 38 34 31 29 25 23 23 23 22 22 23 24 25 26 27 26 25 25
77 75 74 74 73 72 71 65 58 56 59 61 59 58 60 63 68 74 78 79 79 80 82 85 87 91 94 97 98 99 97 93 91 90 90 90 89 86 85 85 86 88 90 92 94 95 96 97 97 95 92 89 87 84 81 78 74 70 65 60 56 52 49 46 44 41 38 35 32 30 27 23 21 22 22 21 21 23 24 26 26 26 24 24 24
76 75 74 71 67 64 61 55 50 52 59 64 66 68 72 76 79 81 82 82 84 86 88 91 94 96 97 97 98 97 94 91 90 90 88 87 85 85 85 87 89 91 93 95 96 97 97 96 94 91 88 85 82 79 75 72 68 64 60 55 52 49 46 44 42 39 35 33 31 29 26 22 21 21 21 21 21 23 26 26 26 24 23 23 23
75 75 73 68 64 64 65 64 64 67 70 74 77 79 81 83 84 85 85 87 88 90 92 94 96 96 96 97 97 95 92 90 88 86 84 84 84 86 88 90 92 94 96 97 97 97 95 93 90 87 84 81 77 73 69 66 62 58 55 51 48 46 44 42 39 37 34 31 30 27 25 22 21 21 21 21 22 25 27 27 25 24 23 22 22
75 76 76 75 74 76 77 77 77 77 76 78 80 82 83 84 84 85 86 87 90 92 93 94 94 95 96 97 95 92 90 87 84 83 84 85 87 89 91 93 95 97 98 97 96 94 92 89 86 83 79 75 71 67 63 60 57 54 50 47 45 43 41 38 36 34 32 30 29 27 24 22 21 21 21 22 25 27 28 27 26 24 22 22 20
77 78 79 79 79 80 80 79 79 79 79 81 82 82 83 84 85 87 89 91 92 93 93 94 96 97 97 96 92 89 86 84 83 84 86 88 90 92 95 96 97 98 97 95 93 90 88 84 81 77 73 69 65 61 58 56 53 49 47 44 42 40 38 36 34 32 30 29 28 26 24 22 21 21 22 24 27 29 28 27 26 24 23 21 18
79 80 81 81 81 81 81 80 80 81 82 82 83 85 87 88 90 92 92 92 93 93 95 96 97 97 95 92 88 85 84 84 86 87 89 91 93 96 97 98 98 97 94 92 89 87 83 79 75 71 67 63 59 57 54 52 49 46 44 41 39 37 35 33 31 30 29 28 28 26 24 22 22 21 23 26 29 30 29 28 26 24 22 20 17
80 81 82 82 82 82 81 81 82 83 84 85 87 89 90 91 92 92 92 93 94 96 97 97 95 92 89 86 84 84 85 87 89 91 93 95 96 98 98 98 96 93 91 88 86 82 78 73 68 64 61 58 55 52 50 48 46 43 40 38 36 34 33 31 30 29 28 28 27 26 24 23 22 22 25 29 32 31 30 29 28 25 22 19 17
82 82 82 82 82 82 82 82 83 84 86 87 88 89 90 91 91 92 93 94 95 96 95 93 90 86 84 84 85 87 88 90 92 94 96 97 98 98 97 95 92 90 87 84 80 76 71 66 62 59 57 54 51 49 47 45 43 40 37 35 34 32 31 29 28 28 27 28 27 26 24 24 23 23 27 32 34 33 32 31 28 25 22 20 19
79 80 80 81 81 82 82 82 83 84 86 87 88 89 90 91 92 93 94 95 94 93 91 88 85 84 84 86 88 90 91 93 95 97 98 98 98 96 94 91 89 86 82 78 73 69 65 61 58 56 54 51 48 45 43 41 39 37 35 33 32 31 30 28 27 27 27 27 27 26 25 25 25 25 29 34 36 35 34 32 29 26 24 21 20
77 79 80 81 81 82 82 82 83 84 86 87 88 90 91 92 93 93 92 91 89 88 86 85 85 86 87 89 91 92 94 96 97 98 98 97 95 93 90 88 84 80 75 70 66 62 59 57 55 54 51 48 45 42 39 37 36 34 33 31 30 29 28 27 27 27 27 27 27 26 26 27 27 28 31 37 39 38 36 35 31 28 26 23 22
80 81 82 81 81 81 82 83 84 85 86 88 89 90 91 90 90 88 87 85 84 85 85 86 87 89 90 92 93 95 96 97 97 97 96 93 91 88 85 81 76 71 67 63 59 56 55 53 51 49 46 44 41 38 36 34 33 32 31 30 29 28 27 26 26 26 26 27 27 26 26 28 29 30 34 39 41 40 39 37 34 31 28 26 24
82 82 82 82 82 82 82 84 85 85 86 87 87 87 86 85 84 83 83 83 84 86 87 88 90 91 93 94 96 96 97 96 95 93 91 88 85 81 77 72 68 64 60 56 53 51 50 48 46 44 42 40 37 35 33 31 30 29 29 29 28 27 26 26 25 25 26 26 26 26 26 29 31 33 36 41 43 42 41 39 36 33 31 29 27
82 82 82 82 82 81 82 83 83 83 83 83 84 83 82 82 82 82 83 85 87 89 90 92 93 94 95 96 96 95 94 92 90 87 84 80 76 73 69 65 61 57 54 51 48 46 45 43 41 39 38 37 35 32 31 29 28 27 27 27 27 26 26 25 25 25 25 25 26 26 26 29 32 35 38 43 45 45 43 41 38 36 34 32 30
80 80 80 80 79 79 79 79 80 80 80 80 81 82 83 83 84 85 87 88 90 92 93 94 95 96 96 95 94 92 90 86 82 78 74 71 68 65 62 59 55 52 49 46 43 42 41 39 37 36 35 34 32 31 29 28 27 27 26 26 26 25 25 25 24 24 24 24 25 26 26 28 32 36 40 45 47 47 45 43 41 38 36 34 33
76 76 77 77 76 76 77 77 78 79 79 81 82 84 85 87 88 90 91 92 93 94 95 96 96 95 94 92 89 86 81 76 71 68 65 63 61 59 56 53 50 47 44 42 40 38 37 36 35 34 33 32 31 29 28 27 26 26 26 26 25 24 24 24 24 24 23 23 25 25 26 27 32 36 40 45 49 49 47 46 43 41 39 37 36
72 73 75 76 76 77 78 79 80 81 83 84 86 87 89 90 92 93 94 95 95 96 95 95 93 91 89 85 81 76 71 66 63 60 58 56 55 54 51 47 44 42 41 39 37 36 34 33 33 33 32 31 30 29 28 27 26 26 26 25 25 24 23 23 23 23 23 22 23 25 25 27 30 35 40 45 50 51 50 48 46 44 42 40 39
72 73 75 77 78 79 81 82 84 85 87 89 90 91 92 93 94 95 95 96 95 94 93 91 88 85 80 75 70 66 62 59 56 54 52 51 51 49 46 43 40 39 38 38 36 34 33 32 32 32 31 30 29 28 28 27 26 26 25 25 25 23 22 21 21 22 22 21 21 23 25 26 29 33 39 45 51 53 52 50 49 47 44 43 42
74 75 77 79 81 82 84 86 88 89 91 92 93 94 94 95 95 95 94 93 91 89 86 83 79 74 70 65 62 59 56 53 51 50 49 48 46 44 43 41 39 37 37 37 36 34 33 32 31 31 30 29 29 28 28 27 26 26 25 25 25 23 22 21 21 20 20 20 20 21 23 25 28 31 36 43 50 54 54 53 51 50 47 45 44
77 79 81 82 84 86 88 89 90 92 93 93 94 94 94 94 93 91 89 86 83 80 77 73 69 65 62 59 56 53 51 49 48 46 45 44 44 42 41 40 38 36 36 36 36 35 33 32 31 31 31 30 29 28 27 26 26 25 25 25 24 23 22 21 20 19 19 18 18 19 21 24 26 29 33 40 47 53 55 55 54 52 50 48 46
82 83 85 86 87 89 90 91 92 92 93 93 92 91 90 88 85 83 80 76 73 70 67 64 61 58 56 53 51 49 47 46 44 43 43 42 42 42 41 39 38 37 36 35 35 34 33 32 32 32 31 31 29 28 27 27 26 25 24 24 24 23 22 21 20 19 19 18 18 18 19 21 24 27 30 36 44 51 55 56 55 55 53 51 48
85 86 87 88 89 89 90 90 90 89 88 87 85 83 81 78 75 72 69 67 64 62 59 57 55 53 51 48 46 45 43 42 42 42 42 42 41 41 41 40 39 37 36 36 35 34 33 32 32 32 32 31 30 29 28 27 26 25 24 24 24 23 22 21 20 19 19 19 19 18 18 19 21 24 28 32 39 47 54 57 57 56 55 54 51
Wind_Direction
305 307 308 310 311 312 314 314 313 312 310 308 308 309 311 314 317 318 318 319 318 317 316 317 319 318 316 316 312 307 310 317 319 320 319 316 313 312 310 310 309 311 314 316 316 316 315 315 318 320 320 320 321 320 320 320 320 321 323 324 325 325 324 323 323 323 323 321 316 310 298 283 274 265 258 255 252 252 255 254 250 245 241 237 234
303 305 307 309 310 311 312 312 312 309 306 306 308 310 310 312 316 315 313 312 313 314 313 314 316 316 314 314 311 308 311 315 316 317 318 315 313 313 312 310 308 308 310 312 314 315 314 315 318 319 319 319 319 318 318 318 318 319 322 323 324 323 323 323 323 322 321 318 314 308 296 281 273 265 258 256 254 253 253 254 252 248 242 239 236
303 305 306 308 309 311 311 311 311 309 305 306 310 314 314 314 314 312 309 309 310 312 311 310 311 312 311 310 308 309 312 313 313 316 316 314 313 312 311 311 309 308 308 311 313 313 313 315 317 318 318 318 318 317 317 317 317 319 321 322 322 322 322 322 322 322 320 315 311 306 295 282 272 264 257 255 254 254 252 252 253 250 244 240 237
302 304 306 308 309 310 309 306 307 306 301 301 307 312 313 312 309 306 306 307 308 309 309 308 306 308 308 306 307 309 308 308 311 314 313 312 310 309 310 312 311 308 308 309 311 311 311 313 315 316 317 317 317 317 316 316 317 318 319 320 320 321 321 322 322 322 320 315 309 304 296 285 275 266 258 255 254 254 252 251 252 251 247 241 237
300 302 305 306 306 307 304 296 295 296 295 298 303 306 308 308 307 304 303 306 307 305 305 305 304 305 306 305 305 306 304 306 310 311 310 309 307 307 309 310 308 306 305 307 308 309 310 312 313 315 316 317 317 316 316 316 316 317 318 318 319 320 321 322 321 320 318 314 309 304 297 288 279 269 260 255 254 254 253 251 251 251 248 243 238
299 301 303 303 302 302 300 295 293 296 300 304 306 306 308 308 306 303 302 303 304 301 300 301 301 303 304 303 302 301 302 304 306 307 307 307 307 307 307 305 304 303 305 306 306 308 310 310 312 313 315 316 316 316 316 316 317 317 317 317 318 319 320 321 320 317 315 311 307 303 298 291 284 275 265 256 254 255 254 251 250 249 249 245 239
298 300 301 300 299 300 302 302 302 303 305 305 303 302 303 303 301 299 298 298 298 297 298 299 299 300 300 299 297 297 300 302 303 304 306 307 307 307 305 304 304 305 306 306 306 307 308 309 311 313 314 315 315 316 317 317 316 316 316 317 318 318 319 319 317 314 312 309 304 300 297 292 287 280 270 260 254 254 256 254 251 249 248 246 242
297 298 298 297 299 301 303 306 307 307 306 303 299 296 297 296 294 293 293 293 293 295 298 299 299 298 298 296 296 297 299 301 302 303 305 305 305 305 304 305 305 306 307 306 306 306 307 309 311 312 313 314 315 316 317 316 316 315 316 316 317 317 317 316 313 311 310 307 303 299 295 292 288 283 274 264 256 253 254 255 253 250 247 246 243
295 296 296 297 299 301 303 308 310 305 300 299 298 297 298 298 295 292 291 292 293 295 297 298 299 300 300 298 297 297 297 298 300 301 302 303 303 303 304 304 305 306 306 306 305 306 307 309 311 311 311 312 314 316 316 315 315 315 315 316 317 317 315 313 311 310 310 308 303 298 295 291 288 283 275 266 259 254 253 254 253 252 249 246 244
294 295 296 297 299 300 302 306 304 292 286 290 293 293 296 298 296 293 291 291 292 294 295 295 297 299 300 298 296 296 296 296 297 299 300 301 302 303 303 304 305 305 305 306 307 308 309 310 311 310 311 312 314 315 315 314 314 315 315 316 316 316 314 312 310 311 311 308 303 298 295 292 287 282 274 266 259 256 254 253 253 252 250 247 245
294 295 296 297 299 300 300 300 295 287 284 288 290 291 292 293 292 291 289 290 292 293 294 294 295 296 297 295 295 295 295 295 296 297 298 300 302 303 304 304 304 304 306 307 308 309 311 311 310 310 310 312 314 314 313 313 314 314 315 316 316 315 314 313 313 313 312 308 304 300 295 292 287 281 273 265 259 255 254 254 253 251 249 248 246
293 294 296 297 298 299 298 295 292 289 289 290 290 291 292 291 290 289 289 290 292 293 294 294 294 295 295 295 295 294 293 294 295 295 297 299 302 304 304 303 303 305 307 308 309 311 312 311 309 309 311 312 312 312 312 312 313 314 316 317 316 315 315 314 314 313 311 308 305 302 297 291 286 281 274 266 258 255 254 254 253 251 249 247 246
293 294 295 296 296 296 294 293 291 290 290 289 289 289 289 287 288 288 289 291 291 292 292 292 292 294 295 295 294 292 292 292 293 294 297 300 302 303 304 305 306 307 307 308 310 311 310 309 309 310 311 311 311 311 312 312 313 316 317 316 315 315 314 314 314 312 310 308 306 303 299 293 286 279 274 267 259 254 253 253 252 251 250 247 246
292 293 293 293 293 292 291 291 290 290 291 290 290 290 289 288 288 289 289 290 290 290 290 291 291 292 292 292 291 290 290 291 293 296 299 301 302 304 306 307 308 308 309 309 310 310 308 309 309 309 310 310 310 310 311 312 314 316 316 315 314 314 314 314 313 311 309 308 306 304 300 295 287 280 274 268 262 255 253 253 252 251 250 248 245
291 291 292 292 291 291 291 291 291 293 293 292 291 291 291 290 290 290 289 289 289 289 289 290 290 290 289 288 288 288 289 290 293 298 301 303 304 305 306 308 309 309 309 309 308 308 308 309 309 308 308 308 308 309 311 312 314 315 315 314 314 314 314 313 312 311 309 307 306 304 301 296 289 282 275 269 263 257 253 251 251 250 248 247 246
290 291 291 291 292 292 292 292 294 296 294 292 292 293 292 290 290 289 288 287 287 288 289 289 288 287 286 286 287 288 289 291 294 298 301 303 304 305 307 309 309 308 307 307 308 308 308 309 308 307 308 308 308 310 312 313 314 314 314 314 314 314 313 312 311 310 309 308 306 304 301 297 290 283 276 270 264 259 254 250 250 248 246 246 245
290 290 291 291 292 293 293 294 295 295 294 293 294 294 292 291 291 290 288 287 286 286 288 288 287 286 285 286 287 288 289 290 293 297 299 301 302 305 308 308 306 305 306 308 308 307 307 307 306 306 308 309 310 312 314 314 315 315 314 315 314 314 313 312 312 311 309 308 307 305 302 298 291 284 277 270 264 260 255 251 248 246 245 245 244
290 290 291 292 293 293 294 294 294 294 293 294 294 293 291 290 290 288 287 287 286 287 288 288 287 286 286 285 286 287 288 289 292 294 296 299 302 306 307 305 303 304 306 308 307 307 306 307 307 308 309 311 311 313 314 314 315 315 315 315 314 314 313 313 312 311 309 308 307 306 303 298 291 284 277 270 263 259 256 252 248 245 243 243 243
290 290 291 291 292 293 293 294 294 295 295 295 294 292 290 289 287 285 283 283 285 287 289 289 288 286 286 286 286 286 287 289 292 294 298 302 305 306 306 304 303 304 306 307 308 307 307 308 308 309 310 312 312 313 314 314 314 314 314 314 314 314 314 313 312 311 309 308 307 305 302 297 291 283 276 269 263 257 254 252 250 246 243 242 242
290 290 291 291 292 293 293 294 295 295 295 295 294 293 291 289 288 286 284 284 285 287 288 288 287 285 286 287 288 288 290 293 296 300 304 306 307 307 306 306 306 306 307 308 308 307 308 308 309 310 311 312 313 313 314 313 313 313 313 314 314 314 313 313 312 310 308 307 307 305 301 296 289 282 275 268 263 257 253 251 250 248 244 241 240
289 290 291 291 292 293 293 294 294 294 295 295 294 293 292 290 289 288 286 286 286 286 285 284 283 285 287 289 291 293 296 300 303 305 306 308 309 309 309 309 308 308 308 308 308 308 308 309 310 311 312 313 313 313 313 313 313 313 314 314 314 313 313 312 310 309 308 307 306 304 300 294 288 280 273 268 263 258 253 250 248 247 245 242 239
288 289 290 291 292 293 294 294 294 294 295 295 294 293 292 292 291 290 289 288 287 286 284 282 283 286 290 293 296 299 301 303 305 306 308 310 311 312 311 310 308 308 308 308 308 309 309 310 312 312 313 313 313 313 313 313 313 313 314 314 313 312 312 311 309 308 308 307 306 302 299 294 287 279 272 266 262 258 254 250 246 244 243 242 240
287 288 290 291 292 293 293 294 294 295 295 295 294 293 293 292 291 289 288 286 283 282 284 286 289 292 295 298 299 301 302 303 305 307 310 311 312 312 311 310 308 308 308 308 309 310 311 312 312 312 312 312 312 312 312 313 313 313 313 313 312 311 311 310 309 308 307 306 304 301 298 293 286 278 271 264 260 258 255 251 246 242 241 241 240
287 289 290 292 293 293 294 294 294 295 294 293 292 291 292 292 290 287 285 281 278 283 290 293 295 296 297 299 300 301 303 305 307 309 311 311 312 312 311 310 309 309 309 310 311 311 311 312 311 311 311 312 312 312 312 312 312 312 312 311 311 311 310 309 308 307 306 305 302 300 297 292 285 276 269 262 258 256 254 251 247 242 239 239 238
288 290 291 292 293 294 295 295 295 294 292 292 292 293 293 294 292 288 284 282 285 290 295 296 296 298 299 301 303 305 307 308 309 310 311 311 311 311 310 310 309 309 310 311 311 311 311 311 311 311 311 312 312 312 312 312 312 311 311 310 310 310 309 308 307 306 305 302 300 298 296 290 282 273 266 261 257 255 253 251 247 241 238 237 236
290 291 292 293 293 294 294 294 294 294 294 296 297 296 291 289 290 288 286 288 291 293 296 299 301 303 304 306 307 308 309 309 309 309 309 310 310 310 310 310 310 310 310 310 310 310 310 310 311 311 311 312 312 311 311 311 311 310 309 309 309 309 308 307 306 305 303 301 299 297 293 286 278 269 263 258 255 253 252 250 246 241 237 235 235
290 291 292 292 292 292 293 293 295 296 297 298 298 296 292 290 290 289 288 290 293 296 299 302 304 305 305 306 306 307 307 307 307 307 308 308 309 309 309 309 309 309 309 309 309 310 310 310 311 311 311 311 311 310 310 310 309 309 308 308 308 308 307 306 305 303 302 300 298 295 289 282 273 265 259 255 252 251 250 248 245 241 237 234 233
290 291 291 291 291 291 292 294 295 296 297 297 297 298 298 296 294 293 292 293 295 297 299 300 302 302 303 304 304 304 304 305 305 306 307 307 308 308 308 309 309 308 309 309 309 310 310 310 310 310 310 309 309 309 309 308 308 307 307 308 307 307 306 304 303 301 300 298 296 292 285 276 268 261 255 251 248 248 247 245 242 239 237 235 233
288 289 289 290 290 291 292 294 296 297 298 298 299 299 298 296 295 294 293 294 295 297 298 300 302 302 302 302 302 302 303 304 305 306 306 307 307 307 307 308 307 308 309 309 309 309 308 308 308 308 308 308 308 308 307 307 306 306 307 306 306 306 305 303 301 299 297 295 293 288 281 271 263 258 252 247 245 245 243 240 238 238 238 236 234
287 288 289 289 290 291 293 295 296 297 297 297 296 294 292 290 289 290 292 294 297 300 301 302 301 300 300 300 301 302 303 305 305 306 306 306 306 306 307 307 307 308 308 308 307 307 307 307 307 307 307 307 306 306 306 305 306 306 306 305 305 305 304 301 299 297 295 292 289 284 276 266 258 254 249 244 243 240 236 234 235 238 239 237 235
286 287 288 289 290 292 293 294 293 292 291 290 288 286 285 284 286 291 295 298 300 300 299 298 298 298 299 300 301 303 304 305 305 305 306 305 306 306 306 307 307 307 306 306 306 306 306 306 306 306 306 306 305 305 305 305 305 305 304 304 304 304 302 300 298 295 292 288 284 280 272 262 254 249 246 243 239 233 229 230 234 236 237 236 236
286 287 288 289 290 291 290 286 283 282 283 283 283 284 286 289 292 295 297 297 297 296 296 296 297 298 299 300 302 304 304 304 304 305 305 305 305 306 306 306 305 305 304 305 305 305 306 306 306 305 305 305 305 305 305 305 304 304 304 304 304 302 300 297 295 292 289 285 281 276 268 257 248 244 243 240 233 225 222 226 231 233 235 236 237
286 286 286 286 285 283 282 280 280 281 282 283 285 288 290 292 293 293 293 293 294 294 295 296 297 298 299 301 302 303 303 304 304 304 304 304 304 304 304 304 303 303 304 304 305 305 306 305 305 305 305 305 305 305 304 304 303 303 303 303 302 300 297 294 291 288 285 281 277 271 263 252 243 240 240 235 226 219 218 222 226 230 233 236 236
284 284 284 283 283 283 283 285 286 286 285 286 287 287 288 289 291 292 292 293 294 295 296 297 298 299 300 302 302 302 302 303 303 302 302 303 303 303 302 302 303 303 304 305 305 305 306 305 305 305 305 305 305 304 304 303 303 303 303 302 300 297 294 291 287 284 280 276 273 267 258 247 239 237 235 229 220 215 215 218 222 226 232 235 234
286 285 285 285 284 284 285 285 286 286 285 285 286 287 289 291 292 293 294 295 295 296 297 298 299 300 301 301 301 301 301 301 301 301 302 302 302 302 302 302 303 304 304 305 306 306 306 305 305 305 305 305 304 304 303 303 302 302 301 300 298 294 291 288 284 280 276 272 268 263 253 243 235 232 230 224 217 212 212 215 219 224 229 231 228
287 286 286 285 285 285 285 285 286 286 287 288 289 290 291 292 293 293 294 295 296 297 298 298 299 300 300 300 300 300 300 300 301 301 301 301 301 301 302 303 303 304 305 306 306 306 306 305 305 305 305 304 304 303 303 302 301 300 299 297 295 291 288 284 281 277 273 268 265 259 250 239 232 229 225 220 214 209 209 212 218 221 224 225 221
286 286 285 285 284 285 285 285 286 287 288 289 289 290 291 291 292 293 294 295 296 297 297 298 298 299 298 298 299 299 300 300 300 300 300 301 301 302 302 303 304 304 305 306 306 305 305 305 304 304 303 303 303 302 301 300 299 299 298 296 293 289 286 283 279 275 270 265 262 256 246 235 229 225 222 216 211 207 207 210 215 218 219 221 218
285 285 284 284 283 283 284 285 285 286 286 287 288 289 290 291 292 293 294 294 295 296 296 297 297 297 297 298 298 299 299 299 300 300 300 301 301 302 303 303 304 305 305 305 305 304 304 303 303 302 301 301 302 301 300 299 298 298 297 294 291 288 285 282 278 273 268 263 259 254 243 232 225 222 219 214 209 207 206 208 212 214 215 217 217
284 283 284 283 283 283 284 285 285 286 287 288 289 289 290 291 292 292 293 294 295 295 296 296 296 296 297 297 298 298 298 299 299 300 300 301 302 302 303 303 304 304 304 304 303 303 303 302 301 301 301 301 301 301 299 298 297 296 294 292 290 287 284 281 276 271 266 261 257 252 241 229 222 219 216 212 209 207 206 206 208 210 212 215 215
283 283 283 283 283 284 285 286 286 287 287 288 289 289 290 291 292 292 293 294 294 295 295 295 295 296 296 297 297 298 298 299 299 300 301 301 301 302 302 303 303 303 303 302 302 302 302 301 300 299 300 301 300 299 297 296 295 293 292 290 289 287 284 281 275 270 264 259 254 250 240 228 219 215 214 211 209 208 207 205 205 206 209 212 214
283 283 283 283 284 284 285 286 286 286 287 287 288 289 290 291 292 292 293 293 294 294 294 295 295 296 296 297 297 298 298 299 300 300 300 301 301 301 301 301 301 301 301 301 301 301 300 299 298 298 298 299 298 297 295 293 292 291 290 290 289 288 285 280 275 269 263 257 252 247 239 228 218 213 211 210 210 209 207 205 203 204 206 210 212
284 284 284 285 285 286 286 286 287 287 287 288 288 289 290 291 291 292 292 293 293 293 294 294 295 295 296 297 297 298 299 300 300 300 300 300 300 300 300 300 300 300 300 300 300 299 298 297 297 297 297 297 296 295 293 291 289 289 290 291 291 289 286 281 275 268 262 256 250 245 239 229 219 212 209 209 210 210 208 205 203 203 204 207 210
284 285 286 286 287 287 287 287 288 288 289 289 289 290 290 291 291 291 292 292 293 293 294 294 295 296 297 297 298 299 299 300 300 299 299 299 299 299 299 299 299 300 300 300 299 298 297 297 297 297 296 295 294 293 291 290 289 290 290 291 292 291 287 281 275 268 262 255 249 244 238 230 221 214 209 207 209 211 209 206 203 203 203 206 209
285 286 287 287 288 288 288 288 288 289 289 289 290 291 291 291 292 292 292 293 293 294 294 295 296 296 297 298 298 299 299 299 298 298 298 298 298 297 298 299 300 300 300 300 299 298 297 297 297 296 295 294 292 291 290 290 290 291 291 291 292 291 287 282 276 268 261 255 248 243 238 230 223 216 210 207 208 210 210 207 205 203 203 204 207
287 288 288 288 288 288 288 288 288 289 289 289 290 290 291 291 292 292 292 293 293 294 295 295 296 296 297 297 297 297 298 297 297 297 297 297 297 297 298 300 301 301 300 299 298 298 297 297 297 296 294 293 292 291 290 290 291 291 291 291 291 290 287 283 277 270 263 255 248 242 237 231 224 218 212 208 208 210 210 208 206 205 204 203 206
288 288 288 288 289 289 289 289 289 289 289 290 290 290 291 291 292 292 293 293 294 294 295 295 295 296 296 296 296 296 296 296 296 296 296 296 297 298 299 301 301 302 301 300 298 297 297 296 296 295 294 293 293 291 291 291 291 291 291 290 289 289 287 284 279 273 266 258 250 243 237 231 225 220 214 209 208 209 211 210 208 207 206 204 205
287 287 288 288 289 289 289 289 289 289 290 290 290 291 291 291 292 292 293 293 293 294 294 294 294 295 295 295 295 295 295 295 295 296 296 297 297 298 300 301 302 302 301 300 298 297 296 295 294 293 293 293 292 292 291 291 291 291 290 289 288 287 286 284 281 276 270 263 255 246 239 232 226 221 217 212 209 209 211 211 209 208 208 206 205
286 286 286 287 287 288 288 288 288 289 289 290 290 290 291 291 291 291 291 292 292 292 293 293 293 294 294 294 294 294 294 295 296 296 297 297 298 299 300 302 302 302 301 299 298 297 296 295 294 293 292 292 291 291 290 290 290 290 289 288 286 286 284 283 281 278 273 268 261 252 244 237 229 223 219 215 212 211 211 212 211 210 209 208 207
285 286 286 286 286 287 287 287 288 288 289 289 289 290 290 290 290 290 290 291 291 291 292 292 292 293 293 293 293 294 295 296 297 297 298 298 299 300 301 301 302 301 300 298 297 297 297 296 295 294 292 292 291 290 290 289 289 288 287 285 284 283 282 281 280 279 276 271 265 257 249 242 235 227 221 217 215 213 213 213 212 211 211 210 209
285 285 285 286 286 286 287 287 288 288 288 288 288 288 288 289 289 289 289 290 290 290 290 291 291 291 292 293 294 295 296 297 298 298 298 298 299 300 300 301 301 300 299 297 297 297 297 296 295 294 292 292 292 291 290 289 288 287 285 284 282 280 280 279 278 277 275 271 267 260 252 246 240 233 226 221 217 215 215 215 214 212 212 212 212
285 285 286 286 286 286 287 287 287 287 287 287 287 287 287 287 288 288 288 288 288 289 290 291 291 292 293 294 295 296 297 297 297 297 297 298 298 299 299 300 300 300 299 298 297 296 295 294 293 291 291 290 291 290 289 288 287 286 284 282 280 278 278 277 275 273 271 269 267 263 257 251 244 237 231 225 220 217 216 216 216 215 213 213 214
Height
10934 10932 10931 10929 10927 10925 10923 10920 10917 10915 10912 10910 10908 10906 10903 10901 10899 10897 10896 10894 10893 10891 10889 10886 10883 10881 10879 10876 10873 10870 10867 10865 10863 10862 10859 10856 10854 10852 10850 10847 10844 10840 10837 10834 10831 10829 10827 10825 10822 10819 10816 10813 10810 10807 10804 10801 10797 10794 10792 10788 10784 10781 10776 10771 10764 10757 10754 10753 10752 10750 10749 10747 10746 10748 10748 10748 10749 10749 10749 10750 10752 10754 10757 10760 10763
10930 10929 10927 10926 10924 10921 10918 10914 10911 10908 10905 10904 10902 10900 10897 10895 10894 10892 10891 10889 10888 10886 10884 10881 10879 10876 10873 10871 10868 10865 10861 10858 10856 10855 10852 10850 10847 10845 10842 10840 10837 10834 10831 10828 10825 10823 10820 10818 10816 10812 10809 10807 10804 10801 10798 10794 10791 10787 10784 10780 10776 10773 10769 10764 10758 10750 10743 10741 10742 10741 10740 10738 10736 10738 10739 10739 10738 10739 10740 10741 10742 10744 10746 10749 10752
10926 10925 10923 10922 10920 10916 10912 10907 10904 10900 10898 10897 10896 10894 10891 10890 10888 10887 10885 10884 10883 10881 10879 10876 10873 10871 10868 10866 10863 10860 10856 10852 10850 10848 10845 10843 10840 10838 10835 10833 10831 10828 10825 10822 10820 10817 10814 10812 10809 10806 10803 10800 10797 10794 10791 10787 10783 10779 10775 10772 10768 10764 10761 10757 10751 10744 10736 10730 10730 10731 10730 10728 10727 10727 10729 10730 10729 10728 10729 10731 10732 10733 10736 10739 10741
10922 10921 10920 10918 10916 10914 10909 10901 10896 10893 10890 10890 10890 10889 10888 10886 10884 10882 10880 10878 10876 10875 10873 10870 10867 10865 10862 10860 10858 10855 10850 10847 10844 10842 10839 10837 10834 10832 10830 10827 10825 10822 10819 10817 10814 10811 10808 10804 10801 10798 10795 10792 10789 10786 10783 10779 10775 10771 10767 10763 10759 10755 10752 10748 10743 10738 10731 10724 10719 10720 10720 10719 10718 10718 10720 10720 10718 10718 10719 10721 10722 10723 10725 10729 10731
10918 10917 10917 10914 10912 10911 10906 10897 10891 10887 10885 10885 10885 10885 10884 10883 10880 10878 10875 10873 10871 10869 10867 10864 10861 10859 10856 10853 10851 10848 10844 10841 10839 10836 10834 10831 10829 10827 10825 10822 10819 10816 10813 10810 10807 10804 10801 10797 10794 10790 10787 10783 10780 10777 10774 10770 10766 10762 10758 10753 10749 10745 10741 10738 10734 10730 10727 10720 10713 10709 10709 10709 10708 10708 10710 10711 10708 10708 10710 10711 10711 10712 10715 10719 10721
10914 10914 10913 10910 10906 10904 10901 10894 10889 10886 10884 10882 10880 10879 10878 10877 10876 10873 10869 10867 10865 10862 10861 10859 10856 10853 10850 10847 10844 10841 10838 10835 10833 10830 10828 10826 10823 10821 10818 10816 10813 10809 10806 10803 10800 10796 10793 10789 10785 10782 10778 10775 10771 10768 10764 10761 10756 10752 10748 10744 10740 10735 10732 10728 10725 10722 10720 10716 10709 10703 10699 10698 10698 10698 10700 10701 10699 10698 10699 10701 10701 10702 10705 10708 10711
10910 10910 10909 10905 10901 10898 10896 10893 10889 10885 10883 10879 10874 10871 10871 10870 10869 10867 10864 10862 10859 10856 10855 10853 10850 10847 10844 10840 10837 10834 10831 10829 10826 10824 10822 10819 10816 10813 10810 10807 10805 10802 10798 10795 10792 10788 10785 10781 10777 10773 10769 10765 10762 10758 10755 10751 10746 10742 10738 10735 10730 10726 10722 10719 10716 10714 10711 10708 10702 10697 10692 10688 10688 10689 10689 10690 10690 10690 10689 10689 10690 10692 10695 10698 10700
10906 10905 10903 10899 10896 10894 10893 10891 10887 10880 10877 10873 10867 10864 10863 10863 10862 10860 10858 10856 10853 10852 10850 10847 10844 10842 10839 10835 10831 10828 10826 10823 10819 10817 10815 10812 10809 10806 10803 10799 10796 10792 10790 10787 10784 10781 10777 10773 10769 10765 10760 10756 10752 10748 10745 10741 10736 10732 10728 10725 10721 10716 10712 10709 10706 10704 10702 10698 10693 10689 10685 10680 10679 10679 10678 10679 10681 10681 10680 10679 10680 10682 10685 10688 10689
10899 10898 10896 10894 10892 10890 10888 10889 10888 10879 10869 10864 10860 10857 10856 10856 10855 10854 10852 10851 10849 10847 10845 10842 10839 10837 10833 10829 10825 10822 10820 10817 10813 10810 10808 10805 10802 10799 10796 10792 10788 10785 10781 10779 10776 10773 10770 10765 10761 10756 10751 10747 10743 10738 10734 10731 10727 10722 10718 10715 10711 10707 10703 10699 10696 10693 10691 10687 10683 10679 10676 10672 10669 10668 10668 10668 10670 10671 10670 10670 10671 10671 10674 10677 10678
10891 10891 10889 10887 10886 10885 10884 10887 10887 10877 10865 10860 10857 10854 10852 10852 10851 10849 10846 10845 10843 10842 10839 10836 10833 10831 10827 10822 10818 10816 10813 10810 10807 10803 10801 10798 10795 10792 10788 10784 10781 10777 10774 10771 10768 10764 10761 10757 10751 10746 10742 10738 10734 10729 10724 10720 10716 10712 10707 10704 10700 10696 10692 10688 10685 10682 10680 10676 10672 10669 10666 10662 10658 10657 10656 10657 10659 10660 10659 10661 10662 10662 10663 10666 10667
10883 10883 10882 10880 10879 10879 10879 10880 10877 10868 10860 10857 10854 10849 10847 10846 10844 10842 10839 10837 10836 10834 10832 10829 10826 10824 10820 10815 10811 10809 10807 10804 10801 10797 10794 10791 10788 10784 10779 10776 10773 10769 10766 10762 10758 10755 10752 10747 10741 10736 10732 10729 10726 10720 10715 10710 10706 10702 10697 10692 10688 10684 10681 10677 10674 10671 10668 10664 10660 10658 10655 10652 10648 10644 10644 10647 10648 10648 10649 10650 10651 10652 10653 10655 10657
10875 10875 10875 10873 10872 10872 10871 10870 10866 10861 10856 10852 10848 10844 10842 10840 10837 10834 10832 10830 10828 10826 10824 10821 10818 10816 10813 10809 10805 10802 10800 10798 10795 10791 10788 10785 10781 10777 10772 10768 10765 10762 10758 10754 10750 10746 10742 10737 10732 10727 10723 10720 10716 10711 10706 10700 10696 10691 10686 10681 10676 10672 10669 10667 10664 10660 10657 10653 10649 10645 10643 10641 10638 10633 10632 10635 10638 10638 10638 10639 10640 10641 10643 10645 10647
10868 10868 10867 10867 10866 10865 10863 10860 10857 10854 10850 10846 10843 10840 10836 10833 10831 10828 10825 10823 10821 10818 10816 10814 10811 10808 10805 10802 10799 10795 10793 10791 10789 10786 10782 10779 10775 10771 10766 10762 10758 10753 10749 10745 10742 10738 10733 10728 10723 10718 10714 10710 10706 10702 10697 10691 10686 10682 10676 10670 10665 10661 10658 10656 10654 10651 10647 10643 10638 10634 10631 10629 10627 10623 10620 10623 10626 10628 10628 10628 10630 10631 10633 10636 10637
10861 10861 10861 10861 10860 10858 10855 10852 10848 10845 10843 10840 10837 10834 10830 10828 10826 10823 10819 10817 10814 10812 10809 10806 10804 10801 10799 10796 10792 10788 10786 10784 10783 10779 10775 10772 10768 10764 10759 10754 10749 10744 10739 10736 10733 10728 10723 10719 10715 10710 10705 10701 10697 10692 10687 10682 10677 10672 10667 10661 10655 10651 10648 10646 10643 10640 10636 10633 10629 10624 10620 10617 10616 10613 10610 10611 10614 10617 10617 10617 10619 10621 10623 10624 10626
10855 10854 10854 10853 10852 10850 10847 10843 10840 10838 10836 10834 10830 10828 10825 10822 10820 10817 10813 10809 10807 10804 10802 10799 10797 10794 10792 10789 10786 10781 10778 10777 10775 10772 10768 10764 10760 10755 10751 10746 10741 10735 10730 10727 10724 10719 10715 10711 10705 10700 10697 10693 10688 10685 10679 10673 10669 10663 10657 10651 10646 10641 10638 10635 10632 10628 10624 10622 10618 10614 10611 10607 10604 10602 10601 10601 10602 10605 10607 10607 10608 10611 10613 10613 10614
10848 10848 10847 10845 10844 10842 10838 10835 10833 10830 10827 10825 10824 10822 10819 10815 10813 10810 10805 10802 10799 10796 10794 10792 10789 10787 10784 10782 10778 10774 10770 10768 10767 10763 10759 10756 10752 10747 10743 10738 10733 10727 10722 10719 10716 10711 10707 10704 10696 10691 10689 10683 10678 10675 10670 10663 10659 10654 10648 10642 10637 10631 10627 10623 10619 10616 10613 10610 10607 10604 10601 10597 10594 10591 10591 10591 10591 10593 10595 10597 10598 10600 10602 10602 10604
10840 10840 10839 10837 10836 10834 10830 10827 10826 10822 10818 10818 10817 10815 10811 10807 10805 10802 10797 10793 10791 10789 10786 10784 10781 10779 10776 10773 10770 10767 10763 10760 10759 10755 10751 10748 10744 10740 10736 10731 10726 10720 10715 10713 10709 10703 10700 10696 10686 10680 10679 10674 10668 10664 10659 10652 10647 10643 10637 10633 10627 10621 10616 10611 10607 10604 10601 10598 10595 10593 10591 10588 10584 10581 10580 10581 10582 10582 10583 10585 10587 10589 10591 10592 10595
10832 10832 10831 10829 10828 10826 10822 10820 10818 10814 10812 10812 10810 10807 10804 10800 10797 10794 10790 10786 10784 10782 10779 10776 10773 10770 10768 10765 10763 10760 10756 10753 10750 10747 10743 10740 10736 10732 10727 10722 10718 10713 10708 10704 10700 10695 10693 10689 10679 10670 10667 10663 10658 10654 10649 10642 10637 10632 10627 10623 10617 10611 10605 10600 10596 10592 10589 10586 10584 10582 10580 10578 10575 10571 10569 10570 10572 10572 10573 10574 10576 10579 10581 10583 10586
10824 10823 10822 10821 10820 10818 10815 10813 10810 10807 10805 10804 10802 10800 10798 10795 10791 10787 10783 10780 10777 10775 10772 10768 10765 10762 10759 10757 10756 10754 10750 10745 10742 10739 10735 10731 10727 10723 10717 10712 10709 10705 10699 10694 10690 10685 10683 10680 10673 10665 10659 10652 10646 10643 10639 10634 10629 10623 10618 10614 10608 10601 10595 10590 10586 10582 10578 10576 10574 10572 10570 10568 10565 10563 10560 10560 10561 10563 10563 10564 10565 10568 10573 10575 10577
10816 10815 10814 10813 10813 10811 10808 10805 10802 10800 10797 10795 10794 10792 10789 10787 10784 10780 10777 10774 10770 10767 10764 10760 10757 10754 10752 10750 10748 10746 10743 10738 10733 10730 10726 10722 10718 10713 10708 10703 10699 10694 10689 10684 10680 10675 10671 10668 10664 10658 10652 10645 10638 10633 10629 10625 10620 10615 10609 10605 10599 10592 10586 10581 10577 10572 10569 10566 10564 10562 10561 10559 10556 10554 10552 10551 10552 10553 10554 10555 10556 10559 10563 10566 10568
10808 10806 10805 10804 10804 10802 10801 10798 10795 10793 10791 10788 10785 10783 10780 10779 10776 10772 10768 10766 10762 10757 10754 10751 10749 10746 10744 10742 10739 10736 10733 10728 10724 10720 10716 10711 10706 10702 10697 10693 10688 10683 10678 10673 10669 10665 10660 10655 10651 10646 10641 10635 10629 10624 10619 10614 10609 10605 10600 10595 10589 10583 10578 10572 10568 10563 10560 10557 10555 10553 10551 10550 10548 10546 10544 10543 10543 10544 10545 10547 10548 10550 10553 10555 10558
10800 10798 10797 10796 10795 10793 10792 10790 10787 10785 10784 10781 10778 10775 10772 10769 10767 10762 10759 10756 10752 10748 10745 10742 10741 10738 10735 10732 10729 10725 10722 10719 10715 10710 10705 10700 10694 10690 10687 10683 10678 10673 10668 10663 10658 10653 10648 10643 10638 10634 10630 10624 10619 10614 10608 10604 10599 10594 10590 10585 10580 10574 10569 10564 10559 10555 10551 10548 10546 10544 10543 10541 10540 10538 10537 10536 10535 10536 10537 10539 10541 10544 10545 10546 10549
10792 10791 10789 10787 10786 10784 10783 10781 10779 10777 10776 10773 10770 10767 10764 10760 10757 10753 10749 10745 10742 10740 10737 10734 10731 10728 10724 10721 10718 10715 10712 10709 10706 10701 10695 10689 10684 10680 10676 10672 10667 10662 10657 10652 10647 10642 10637 10632 10628 10623 10619 10615 10610 10605 10599 10594 10590 10585 10580 10576 10571 10565 10560 10555 10550 10546 10543 10540 10538 10536 10535 10533 10532 10531 10530 10529 10528 10528 10529 10531 10535 10537 10537 10538 10541
10784 10783 10781 10779 10776 10774 10772 10772 10770 10768 10767 10765 10763 10760 10755 10751 10748 10744 10739 10736 10734 10732 10730 10727 10722 10718 10715 10712 10709 10706 10702 10698 10695 10690 10684 10678 10673 10668 10665 10661 10656 10651 10646 10640 10635 10630 10626 10622 10618 10614 10610 10605 10601 10595 10590 10585 10581 10576 10570 10566 10561 10556 10551 10546 10542 10538 10535 10532 10530 10528 10527 10526 10525 10524 10523 10522 10522 10522 10522 10524 10528 10530 10531 10531 10534
10775 10774 10772 10770 10767 10763 10761 10761 10759 10758 10757 10757 10755 10752 10747 10742 10740 10737 10733 10729 10726 10724 10721 10718 10714 10709 10705 10701 10698 10694 10689 10685 10682 10678 10674 10668 10662 10657 10653 10649 10644 10639 10634 10629 10624 10619 10615 10611 10607 10603 10599 10595 10590 10585 10580 10576 10571 10566 10561 10556 10552 10547 10542 10537 10533 10530 10527 10525 10523 10521 10520 10519 10518 10517 10516 10516 10516 10515 10516 10518 10521 10523 10524 10525 10527
10766 10765 10763 10760 10757 10754 10752 10750 10748 10746 10745 10745 10746 10745 10741 10736 10732 10730 10726 10721 10717 10714 10711 10708 10704 10699 10694 10689 10684 10681 10677 10674 10670 10667 10663 10658 10652 10646 10642 10638 10633 10628 10623 10619 10614 10610 10605 10601 10597 10592 10588 10584 10580 10575 10569 10565 10560 10556 10551 10547 10542 10538 10533 10529 10525 10521 10519 10517 10516 10514 10513 10512 10512 10511 10511 10510 10510 10510 10511 10512 10515 10517 10518 10520 10522
10756 10755 10753 10750 10748 10746 10743 10740 10738 10735 10733 10733 10735 10735 10734 10730 10725 10720 10717 10713 10709 10705 10702 10699 10695 10691 10686 10680 10675 10671 10668 10664 10661 10657 10653 10649 10642 10636 10632 10627 10622 10617 10613 10609 10605 10601 10596 10591 10586 10581 10577 10573 10569 10565 10559 10554 10549 10545 10541 10537 10532 10528 10524 10520 10517 10514 10511 10510 10509 10508 10507 10506 10506 10506 10505 10505 10505 10505 10506 10508 10509 10511 10513 10515 10517
10746 10745 10743 10741 10739 10736 10734 10731 10728 10726 10724 10723 10723 10722 10722 10720 10716 10711 10708 10705 10701 10698 10694 10691 10688 10684 10679 10674 10669 10664 10659 10656 10652 10647 10643 10639 10633 10627 10622 10618 10613 10608 10604 10600 10595 10591 10586 10581 10576 10571 10567 10563 10559 10555 10549 10544 10539 10534 10530 10527 10523 10519 10515 10511 10508 10506 10504 10503 10502 10501 10501 10500 10500 10500 10500 10500 10501 10501 10502 10503 10505 10506 10508 10510 10512
10737 10735 10734 10731 10728 10726 10724 10722 10720 10717 10714 10712 10711 10711 10710 10707 10704 10701 10698 10695 10692 10688 10684 10681 10678 10675 10671 10667 10661 10656 10651 10646 10642 10637 10633 10628 10623 10617 10612 10608 10603 10599 10594 10590 10585 10581 10577 10572 10567 10562 10558 10553 10549 10544 10539 10534 10529 10524 10520 10517 10513 10510 10506 10503 10501 10499 10498 10497 10496 10495 10495 10495 10495 10495 10495 10495 10496 10497 10498 10499 10501 10502 10504 10506 10508
10728 10726 10724 10722 10719 10716 10715 10713 10711 10708 10706 10703 10701 10700 10699 10696 10693 10690 10688 10685 10682 10678 10675 10671 10668 10665 10662 10657 10652 10646 10641 10636 10631 10627 10622 10617 10612 10608 10603 10599 10594 10590 10585 10580 10576 10571 10567 10562 10557 10552 10548 10543 10538 10533 10528 10523 10519 10515 10511 10507 10504 10501 10498 10495 10493 10492 10491 10490 10489 10489 10489 10489 10490 10490 10490 10491 10492 10493 10495 10496 10497 10499 10501 10503 10504
10719 10717 10714 10712 10710 10708 10706 10705 10703 10700 10697 10694 10692 10691 10689 10687 10684 10681 10678 10675 10672 10670 10667 10663 10659 10656 10651 10646 10641 10636 10631 10625 10621 10616 10612 10607 10602 10599 10594 10590 10585 10581 10576 10571 10567 10562 10557 10552 10547 10542 10537 10532 10528 10523 10518 10513 10508 10505 10501 10498 10495 10492 10490 10488 10486 10485 10485 10484 10483 10483 10483 10484 10485 10485 10485 10486 10488 10490 10491 10493 10494 10496 10498 10499 10501
10709 10707 10705 10704 10702 10699 10698 10698 10697 10693 10688 10684 10682 10681 10679 10677 10674 10671 10668 10665 10663 10660 10656 10652 10648 10644 10640 10635 10630 10626 10620 10615 10611 10607 10601 10597 10593 10589 10585 10581 10577 10572 10567 10562 10557 10552 10547 10541 10536 10531 10526 10521 10516 10512 10507 10503 10499 10495 10492 10489 10487 10484 10482 10480 10479 10479 10478 10478 10478 10478 10478 10479 10480 10480 10481 10482 10484 10486 10488 10490 10491 10493 10495 10496 10498
10698 10697 10696 10696 10694 10691 10689 10689 10688 10686 10682 10677 10674 10672 10669 10666 10664 10661 10658 10655 10652 10648 10645 10641 10637 10633 10628 10624 10620 10615 10610 10605 10601 10597 10592 10588 10585 10581 10576 10572 10567 10562 10557 10552 10547 10541 10536 10530 10525 10519 10514 10510 10505 10501 10497 10493 10489 10486 10484 10481 10479 10476 10475 10474 10473 10472 10472 10472 10472 10472 10473 10474 10475 10476 10477 10479 10481 10483 10485 10487 10488 10490 10492 10493 10495
10689 10687 10685 10684 10682 10679 10677 10676 10674 10672 10671 10668 10665 10662 10659 10656 10653 10650 10647 10644 10641 10637 10633 10630 10625 10621 10617 10612 10608 10604 10599 10595 10591 10587 10583 10580 10576 10572 10567 10562 10557 10551 10546 10541 10536 10530 10524 10519 10513 10508 10503 10499 10495 10491 10488 10484 10481 10478 10476 10474 10472 10470 10468 10467 10467 10466 10466 10466 10466 10467 10468 10469 10470 10471 10473 10475 10477 10480 10482 10484 10486 10488 10489 10490 10492
10679 10676 10673 10672 10670 10668 10666 10663 10661 10659 10657 10655 10653 10650 10647 10645 10642 10639 10635 10632 10629 10625 10622 10618 10614 10609 10604 10600 10597 10593 10589 10585 10581 10578 10574 10570 10566 10561 10556 10551 10545 10540 10534 10529 10524 10519 10513 10507 10502 10497 10493 10490 10486 10482 10479 10476 10473 10471 10469 10467 10465 10464 10462 10461 10461 10460 10460 10460 10461 10461 10463 10464 10465 10467 10469 10471 10474 10476 10479 10481 10483 10485 10486 10487 10489
10667 10664 10661 10659 10657 10655 10653 10651 10648 10646 10644 10642 10640 10637 10635 10632 10629 10627 10624 10621 10617 10614 10610 10606 10602 10598 10593 10589 10586 10582 10578 10574 10571 10567 10564 10559 10555 10550 10545 10539 10534 10528 10523 10518 10513 10507 10502 10497 10492 10488 10484 10480 10477 10474 10471 10468 10466 10464 10462 10461 10459 10457 10456 10455 10455 10454 10455 10455 10455 10456 10458 10459 10461 10463 10465 10468 10471 10473 10476 10478 10480 10482 10483 10484 10486
10657 10654 10651 10649 10646 10644 10642 10639 10636 10634 10632 10630 10628 10625 10623 10620 10618 10615 10612 10609 10605 10602 10598 10595 10591 10587 10582 10578 10575 10571 10567 10564 10560 10557 10552 10548 10543 10538 10533 10528 10522 10517 10512 10507 10501 10496 10491 10487 10483 10479 10475 10472 10470 10467 10464 10461 10459 10457 10456 10454 10452 10451 10450 10449 10449 10449 10449 10449 10450 10451 10453 10455 10457 10459 10461 10464 10467 10470 10472 10474 10477 10479 10480 10482 10483
10646 10644 10641 10639 10636 10633 10631 10628 10626 10624 10621 10619 10617 10614 10612 10610 10607 10604 10601 10598 10594 10590 10587 10584 10580 10577 10572 10568 10564 10561 10557 10553 10549 10545 10541 10536 10531 10526 10521 10516 10511 10506 10501 10496 10491 10486 10482 10478 10474 10471 10468 10465 10463 10460 10457 10454 10452 10451 10449 10448 10446 10445 10444 10444 10443 10443 10444 10444 10445 10446 10448 10450 10452 10455 10457 10460 10463 10466 10468 10471 10473 10475 10477 10479 10480
10635 10633 10631 10628 10625 10623 10621 10618 10616 10613 10610 10608 10606 10603 10600 10598 10595 10592 10589 10586 10582 10579 10575 10572 10569 10566 10562 10558 10554 10551 10546 10542 10538 10533 10529 10524 10519 10514 10509 10505 10500 10496 10491 10486 10481 10477 10473 10469 10465 10462 10459 10458 10456 10453 10450 10448 10446 10445 10444 10442 10441 10440 10439 10438 10438 10438 10438 10439 10440 10441 10443 10445 10447 10450 10453 10456 10459 10462 10464 10467 10470 10472 10474 10476 10477
10624 10622 10620 10618 10615 10613 10611 10608 10606 10603 10600 10598 10595 10591 10589 10586 10583 10580 10577 10574 10570 10567 10564 10562 10559 10556 10552 10548 10544 10540 10536 10531 10526 10521 10516 10512 10507 10503 10498 10494 10489 10485 10481 10477 10473 10469 10464 10460 10457 10454 10452 10450 10449 10447 10444 10443 10441 10439 10438 10437 10436 10434 10434 10433 10433 10433 10433 10434 10435 10437 10439 10440 10442 10445 10449 10452 10455 10457 10460 10463 10466 10469 10471 10473 10474
10613 10610 10607 10606 10605 10603 10601 10598 10595 10593 10590 10586 10583 10580 10577 10575 10572 10569 10566 10563 10560 10557 10554 10551 10548 10545 10541 10537 10533 10528 10524 10519 10514 10509 10504 10499 10495 10491 10487 10484 10480 10476 10473 10469 10465 10461 10457 10453 10450 10448 10446 10444 10442 10441 10439 10438 10436 10435 10433 10432 10431 10430 10429 10429 10428 10428 10428 10429 10430 10432 10433 10435 10437 10440 10444 10447 10450 10453 10456 10459 10462 10465 10467 10469 10471
10600 10597 10595 10594 10594 10592 10589 10586 10583 10581 10578 10575 10572 10569 10567 10564 10561 10558 10555 10552 10549 10546 10543 10541 10537 10534 10530 10525 10521 10516 10512 10507 10501 10496 10492 10487 10483 10480 10476 10474 10471 10468 10465 10461 10458 10454 10450 10446 10444 10442 10440 10438 10437 10435 10434 10433 10432 10430 10428 10427 10426 10425 10424 10424 10423 10423 10424 10424 10425 10427 10428 10430 10432 10435 10438 10442 10445 10448 10451 10455 10458 10461 10464 10466 10468
10587 10585 10583 10582 10581 10579 10576 10574 10571 10568 10565 10562 10559 10557 10555 10553 10551 10548 10545 10542 10539 10535 10532 10529 10526 10522 10518 10513 10508 10504 10500 10495 10490 10485 10481 10476 10472 10469 10466 10464 10462 10459 10456 10453 10450 10446 10443 10440 10438 10436 10434 10432 10431 10430 10429 10428 10427 10425 10424 10422 10421 10420 10420 10419 10419 10419 10419 10420 10421 10422 10423 10425 10427 10430 10433 10437 10441 10444 10447 10450 10453 10456 10459 10462 10464
10576 10574 10571 10570 10568 10566 10564 10561 10559 10556 10554 10551 10548 10545 10543 10541 10538 10536 10533 10530 10527 10523 10520 10517 10513 10509 10505 10501 10496 10492 10488 10484 10480 10475 10470 10466 10462 10459 10457 10455 10453 10450 10448 10445 10442 10439 10436 10434 10432 10430 10429 10427 10426 10425 10424 10423 10422 10420 10419 10418 10417 10416 10415 10415 10414 10414 10415 10415 10416 10417 10419 10420 10423 10425 10428 10432 10435 10439 10442 10446 10449 10452 10455 10458 10460
10565 10562 10559 10557 10556 10554 10552 10550 10547 10545 10542 10540 10537 10534 10531 10529 10526 10523 10520 10517 10514 10511 10507 10504 10500 10497 10493 10489 10485 10482 10478 10474 10470 10465 10461 10457 10453 10450 10448 10447 10445 10442 10440 10437 10435 10432 10430 10428 10426 10425 10423 10422 10421 10420 10419 10418 10417 10416 10415 10414 10413 10412 10411 10410 10410 10410 10410 10411 10412 10413 10414 10416 10418 10420 10423 10426 10430 10434 10437 10441 10444 10448 10451 10454 10456
10555 10552 10548 10546 10545 10543 10540 10538 10535 10533 10530 10527 10524 10522 10519 10517 10514 10511 10508 10505 10501 10498 10495 10492 10488 10485 10481 10478 10475 10471 10468 10464 10461 10457 10453 10449 10446 10443 10441 10440 10438 10435 10432 10430 10428 10426 10424 10423 10421 10420 10418 10417 10416 10415 10414 10413 10412 10412 10411 10410 10409 10408 10407 10406 10406 10405 10406 10407 10408 10408 10409 10411 10413 10416 10419 10421 10425 10428 10432 10436 10439 10443 10446 10450 10452
10546 10543 10540 10537 10534 10532 10529 10526 10524 10521 10518 10515 10512 10509 10507 10504 10501 10498 10495 10492 10489 10486 10483 10480 10476 10473 10470 10467 10464 10461 10458 10455 10452 10449 10445 10442 10438 10436 10434 10433 10431 10429 10426 10423 10421 10420 10419 10418 10416 10415 10413 10412 10411 10410 10409 10408 10408 10407 10407 10406 10405 10404 10403 10403 10402 10402 10402 10403 10404 10404 10405 10407 10409 10411 10414 10416 10419 10423 10426 10430 10434 10437 10441 10445 10448
10537 10534 10531 10528 10525 10522 10519 10516 10512 10509 10506 10503 10500 10497 10494 10491 10488 10485 10483 10480 10477 10474 10471 10468 10465 10463 10460 10457 10454 10452 10449 10446 10444 10441 10437 10434 10432 10430 10428 10426 10425 10423 10420 10417 10415 10414 10413 10413 10411 10410 10408 10407 10406 10405 10405 10404 10404 10403 10402 10402 10401 10400 10399 10399 10399 10398 10398 10399 10400 10400 10401 10402 10404 10406 10409 10411 10414 10417 10420 10424 10428 10432 10435 10439 10443
10527 10524 10521 10518 10515 10512 10508 10505 10502 10498 10495 10492 10489 10485 10482 10479 10476 10473 10471 10468 10466 10463 10460 10457 10455 10453 10450 10448 10446 10443 10441 10438 10435 10433 10430 10428 10425 10424 10422 10420 10419 10417 10415 10412 10410 10409 10408 10407 10406 10405 10403 10402 10401 10401 10400 10400 10400 10399 10399 10398 10397 10396 10396 10396 10395 10395 10395 10395 10396 10396 10397 10398 10400 10402 10404 10406 10409 10412 10415 10419 10423 10426 10430 10433 10437
10516 10513 10510 10507 10504 10500 10497 10494 10490 10487 10484 10480 10477 10473 10470 10467 10464 10462 10460 10457 10455 10452 10450 10448 10446 10444 10442 10439 10437 10435 10433 10430 10428 10426 10424 10422 10420 10418 10416 10415 10413 10412 10409 10407 10405 10404 10403 10402 10401 10399 10398 10397 10397 10396 10396 10396 10396 10395 10395 10394 10393 10393 10392 10392 10392 10392 10392 10392 10392 10392 10393 10394 10395 10397 10399 10402 10404 10407 10410 10413 10417 10421 10425 10428 10432
10504 10501 10498 10495 10492 10489 10485 10482 10479 10475 10472 10468 10465 10462 10459 10456 10454 10451 10449 10447 10445 10443 10441 10439 10437 10435 10433 10431 10430 10428 10426 10424 10422 10420 10418 10416 10414 10412 10410 10408 10407 10406 10404 10402 10400 10399 10398 10397 10396 10395 10393 10393 10392 10392 10392 10392 10391 10391 10391 10390 10390 10389 10389 10389 10389 10389 10389 10388 10388 10389 10390 10390 10392 10393 10395 10396 10399 10401 10404 10408 10412 10416 10420 10423 10426